Weather History for Whiting Fld NAS, FL

Change the Weather History Date:

Monday, July 8, 2013

  Actual Average Record
Temperature  
Mean Temperature 80 °F -  
Max Temperature 88 °F 86 °F 97 °F (1998)
Min Temperature 73 °F 70 °F 66 °F (2014)
Cooling Degree Days 15    
Growing Degree Days 30 (Base 50)    
Moisture  
Dew Point 72 °F    
Average Humidity 83    
Maximum Humidity 94    
Minimum Humidity 63    
Precipitation  
Precipitation 0.00 in - - ()
Sea Level Pressure  
Sea Level Pressure 30.12 in    
Wind  
Wind Speed 1 mph (SE)    
Max Wind Speed 8 mph    
Max Gust Speed -    
Visibility 9 miles    
Events Rain , Thunderstorm    
Averages and records for this station are not official NWS values.
T = Trace of Precipitation, MM = Missing Value Source: NWS Daily Summary

Daily Weather History Graph

Daily Weather History Graph

Search for Another Location

Airport:

Trip Planner

Search our weather history database for the weather conditions in past years. The results will help you decide how hot, cold, wet, or windy it might be!

Date:

Astronomy

Jul. 08, 2013 Rise Set
Actual Time 5:52 AM CDT 7:54 PM CDT
Civil Twilight 5:24 AM CDT 8:21 PM CDT
Nautical Twilight 4:51 AM CDT 8:54 PM CDT
Astronomical Twilight 4:15 AM CDT 9:30 PM CDT
Moon 6:14 AM CDT (7/8) 8:03 PM CDT (7/8)
Length of Visible Light 14h 56m
Length of Day
14h 02m
New Moon, 0% of the Moon is Illuminated
Jul 8
New Moon
Jul 15
First Quarter
Jul 22
Full
Jul 29
Last Quarter
Aug 6
New

Hourly Weather History & Observations

Time (CDT) Temp. Heat Index Dew Point Humidity Pressure Visibility Wind Dir Wind Speed Gust Speed Precip Events Conditions
12:56 AM 73.0 °F - 70.0 °F 90% 30.09 in 10.0 mi Calm Calm - N/A   Partly Cloudy
1:00 AM - - - N/A% - - North - - N/A   Unknown
1:56 AM 73.0 °F - 70.0 °F 90% 30.08 in 10.0 mi Calm Calm - N/A   Clear
2:48 AM 73.4 °F - 69.8 °F 88% 30.11 in 10.0 mi ENE 3.5 mph - N/A   Scattered Clouds
2:56 AM 73.9 °F - 70.0 °F 87% 30.07 in 10.0 mi Calm Calm - N/A   Mostly Cloudy
3:31 AM 73.4 °F - 69.8 °F 88% 30.12 in 10.0 mi Calm Calm - N/A   Scattered Clouds
3:40 AM 73.4 °F - 69.8 °F 88% 30.12 in 10.0 mi ENE 3.5 mph - N/A   Mostly Cloudy
3:56 AM 73.9 °F - 70.0 °F 87% 30.08 in 10.0 mi Calm Calm - N/A   Mostly Cloudy
4:03 AM 73.4 °F - 69.8 °F 88% 30.12 in 10.0 mi Calm Calm - N/A   Scattered Clouds
4:56 AM 73.9 °F - 70.0 °F 87% 30.09 in 9.0 mi Calm Calm - N/A   Scattered Clouds
5:56 AM 73.9 °F - 71.1 °F 91% 30.09 in 9.0 mi Calm Calm - N/A   Mostly Cloudy
6:47 AM 73.4 °F - 71.6 °F 94% 30.14 in 8.0 mi East 5.8 mph - N/A   Overcast
6:56 AM 73.9 °F - 71.1 °F 91% 30.10 in 7.0 mi ENE 4.6 mph - N/A   Overcast
7:39 AM 75.2 °F - 71.6 °F 89% 30.16 in 8.0 mi Calm Calm - N/A   Overcast
7:56 AM 75.0 °F - 72.0 °F 90% 30.12 in 7.0 mi Calm Calm - 0.00 in Rain Light Rain
8:23 AM 75.2 °F - 73.4 °F 94% 30.17 in 9.0 mi Calm Calm - 0.00 in   Overcast
8:56 AM 77.0 °F - 73.0 °F 88% 30.13 in 9.0 mi Calm Calm - 0.00 in   Overcast
9:56 AM 78.1 °F - 73.9 °F 87% 30.14 in 10.0 mi Calm Calm - N/A   Overcast
10:26 AM 78.8 °F - 73.4 °F 83% 30.19 in 10.0 mi Calm Calm - N/A   Mostly Cloudy
10:56 AM 81.0 °F 86.2 °F 73.9 °F 79% 30.15 in 10.0 mi Calm Calm - N/A   Mostly Cloudy
11:56 AM 84.0 °F 89.6 °F 72.0 °F 67% 30.14 in 10.0 mi East 3.5 mph - N/A   Mostly Cloudy
12:26 PM 84.2 °F 89.6 °F 71.6 °F 66% 30.17 in 10.0 mi Calm Calm - N/A Thunderstorm Thunderstorm
12:56 PM 86.0 °F 92.2 °F 72.0 °F 63% 30.12 in 10.0 mi Calm Calm - N/A   Mostly Cloudy
1:56 PM 84.9 °F 91.4 °F 73.0 °F 67% 30.11 in 10.0 mi South 8.1 mph - N/A   Mostly Cloudy
2:56 PM 86.0 °F 93.0 °F 73.0 °F 65% 30.10 in 10.0 mi SSW 6.9 mph - N/A   Mostly Cloudy
3:56 PM 87.1 °F 95.4 °F 73.9 °F 65% 30.08 in 10.0 mi SW 6.9 mph - N/A   Mostly Cloudy
4:56 PM 84.0 °F 89.6 °F 72.0 °F 67% 30.09 in 10.0 mi South 8.1 mph - N/A   Mostly Cloudy
5:56 PM 82.0 °F 87.4 °F 73.0 °F 74% 30.09 in 9.0 mi South 6.9 mph - N/A   Overcast
6:56 PM 80.1 °F 84.5 °F 73.9 °F 81% 30.09 in 10.0 mi Calm Calm - N/A   Overcast
7:56 PM 78.1 °F - 73.9 °F 87% 30.09 in 8.0 mi Calm Calm - N/A   Mostly Cloudy
8:56 PM 78.1 °F - 73.9 °F 87% 30.12 in 9.0 mi Calm Calm - N/A   Mostly Cloudy
9:56 PM 77.0 °F - 73.0 °F 88% 30.14 in 8.0 mi North 3.5 mph - N/A   Mostly Cloudy
10:56 PM 75.9 °F - 73.0 °F 91% 30.14 in 7.0 mi Calm Calm - N/A   Mostly Cloudy
11:56 PM 75.9 °F - 73.0 °F 91% 30.12 in 7.0 mi Calm Calm - N/A   Overcast